Regional Weather Roundup
Issued by NWS

Home | Current Version | Previous Version | Graphics & Text | Print | Product List | Glossary On
Versions: 1 2 3 4 5 6 7 8 9 10 11 12 13 14 15 16 17 18 19 20 21 22 23 24 25 26 27 28 29 30 31 32 33 34 35 36 37 38 39 40 41 42 43 44 45 46 47 48 49 50
000
ASUS43 KIND 210859
RWRIN

WEATHER ROUNDUP FOR INDIANA
NATIONAL WEATHER SERVICE INDIANAPOLIS IN
500 AM EDT SUN SEP 21 2014

NOTE: "FAIR" INDICATES FEW OR NO CLOUDS BELOW 12,000 FEET WITH NO
SIGNIFICANT WEATHER AND/OR OBSTRUCTIONS TO VISIBILITY.

* - STATION DOES NOT REPORT WEATHER SUCH AS PRECIPITATION OR FOG.

+ - STATION NOT QUALITY CONTROLLED BY THE NATIONAL WEATHER SERVICE.
    USE DATA WITH CAUTION...ESPECIALLY DEWPOINT AND RELATIVE
    HUMIDITY OBSERVATIONS.

INZ001>003-010>013-019-020-211000-
NORTHWEST INDIANA

CITY           SKY/WX    TMP DP  RH WIND       PRES   REMARKS
KNOX *+        CLOUDY    67  62  85 W12G21    29.74R
VALPARAISO     PTCLDY    64  58  80 W17G24    29.76R

$$

LMZ046-743>745-211000-
SOUTHERN LAKE MICHIGAN

STATION/POSITION TIME  TEMP WIND        PRES
                       AIR  DIR/SP/G
                 (UTC) (F)  (DEG/KT/KT) (MB)
MICHIGAN CITY    0800   67  230/ 25/ 31   N/A

$$

INZ004-005-014>016-021>024-211000-
NORTH CENTRAL INDIANA

CITY           SKY/WX    TMP DP  RH WIND       PRES   REMARKS
GOSHEN         MOCLDY   N/A N/A N/A W16G25    29.71S
PERU/GRISSOM   CLOUDY    70  70 100 W15       29.75F
SOUTH BEND     PTCLDY    65  59  81 W15       29.73R
WARSAW +       CLOUDY    68  66  94 W9        29.72F

$$

INZ006>009-017-018-025>027-211000-
NORTHEAST INDIANA

CITY           SKY/WX    TMP DP  RH WIND       PRES   REMARKS
ANGOLA *+      CLOUDY    68  59  73 W13       29.67F
FORT WAYNE     CLOUDY    69  67  93 W15       29.73F

$$

INZ028-029-035-036-043>045-051>053-211000-
WEST CENTRAL INDIANA

CITY           SKY/WX    TMP DP  RH WIND       PRES   REMARKS
GREENCASTLE +  MOCLDY    68  66  94 CALM      29.84S
LAFAYETTE      PTCLDY    68  67  96 W8        29.78S
TERRE HAUTE    PTCLDY    69  67  93 SW8       29.85R

$$

INZ030>032-037>040-046>048-054>057-064-065-211000-
CENTRAL INDIANA

CITY           SKY/WX    TMP DP  RH WIND       PRES   REMARKS
FRANKFORT +    MOCLDY   N/A N/A N/A SW10G16   29.81S
INDIANAPOLIS   CLOUDY    69  66  90 SW15      29.82S
-EAGLE CREEK   MOCLDY    70  66  87 SW7       29.81S
KOKOMO *+      MOCLDY    70  64  83 W14G22    29.77F
MT COMFORT *+  MOCLDY    70  70 100 SW13      29.82S
SHELBYVILLE    LGT RAIN  72  67  84 W9        29.82F

$$

INZ033-034-041-042-049-050-058-059-211000-
EAST CENTRAL INDIANA

CITY           SKY/WX    TMP DP  RH WIND       PRES   REMARKS
MUNCIE         CLOUDY    70  66  87 SW12      29.78F

$$

INZ060-061-067>069-081>083-085>088-211000-
SOUTHWEST INDIANA

CITY           SKY/WX    TMP DP  RH WIND       PRES   REMARKS
EVANSVILLE     MOCLDY    71  66  84 SW7       29.90S

$$

INZ062-063-066-070>080-084-089>092-211000-
SOUTH CENTRAL AND SOUTHEAST INDIANA

CITY           SKY/WX    TMP DP  RH WIND       PRES   REMARKS
BLOOMINGTON    LGT RAIN  70  67  90 W8        29.86F

$$




USA.gov is the U.S. government's official web portal to all federal, state and local government web resources and services.